Flag for U.S.A. Weather past 2 weeks in Myrtle Beach, South Carolina, U.S.A.

Now
57 °F

Partly sunny.


Feels Like: 55 °F
Forecast: 42 / 52 °F
Wind: 12 mph from West

Location: Myrtle Beach Air Force Base

Current Time: Mar 28, 2015 at 6:29:17 PM

Latest Report: Mar 28, 2015 at 4:45 PM


Visibility: 10 mi

Pressure: 30.05 "Hg

Humidity: 33%

Dew point: 28 °F

Location of Myrtle BeachLocation

Historic Weather in Myrtle Beach — Graph

°F

Myrtle Beach temperature yesterday

Maximum temperature yesterday: 72 °F (at 10:45 AM)
Minimum temperature yesterday: 48 °F (at 8:45 PM)
Average temperature yesterday: 62 °F

Past Weeks' High & Low Weather Summary

 TemperatureHumidityPressure
High84 °F (Mar 17, 2:45 PM)94% (Mar 20, 1:35 AM)30.38 "Hg (Mar 20, 1:35 AM)
Low46 °F (Mar 16, 6:45 AM)21% (Mar 16, 12:53 PM)29.66 "Hg (Mar 27, 1:45 PM)
Average59 °F71%30.07 "Hg
* Reported Mar 13 4:45 PM — Mar 28 4:45 PM, Myrtle Beach, Weather by CustomWeather, © 2015

Note: Actual official high and low records may vary slightly from our data, if they occured in-between our weather recording intervals... More about our weather records

Advertising

Myrtle Beach weather history for previous 24 hours

 ConditionsComfort  
Time TempWeatherWind HumidityBarometerVisibility
4:45 PM
Sat, Mar 28
57 °FPartly sunny.12 mph33%30.05 "Hg10 mi
3:45 PM55 °FPartly sunny.14 mph38%30.05 "Hg10 mi
2:45 PM54 °FPartly sunny.14 mph41%30.06 "Hg10 mi
1:45 PM54 °FBroken clouds.14 mph41%30.06 "Hg10 mi
12:45 PM52 °FBroken clouds.12 mph44%30.06 "Hg10 mi
11:45 AM50 °FBroken clouds.14 mph54%30.08 "Hg10 mi
10:45 AM48 °FBroken clouds.14 mph62%30.07 "Hg10 mi
9:45 AM46 °FPartly sunny.16 mph66%30.05 "Hg10 mi
8:45 AM46 °FPartly sunny.17 mph71%30.02 "Hg10 mi
7:45 AM46 °FPartly cloudy.7 mph82%29.99 "Hg10 mi
6:45 AM46 °FPartly cloudy.8 mph87%29.97 "Hg10 mi
5:55 AM46 °FMostly cloudy.6 mph87%29.95 "Hg10 mi
5:35 AM46 °FMostly cloudy.7 mph87%29.94 "Hg10 mi
5:15 AM46 °FMostly cloudy.6 mph87%29.93 "Hg10 mi
4:55 AM46 °FPassing clouds.6 mph87%29.92 "Hg10 mi
4:35 AM46 °FPassing clouds.6 mph87%29.92 "Hg10 mi
4:15 AM46 °FPassing clouds.7 mph87%29.91 "Hg10 mi
3:55 AM46 °FPassing clouds.6 mph87%29.90 "Hg10 mi
3:35 AM46 °FOvercast.No wind87%29.90 "Hg10 mi
3:15 AM46 °FOvercast.6 mph87%29.90 "Hg10 mi
2:55 AM46 °FOvercast.6 mph82%29.90 "Hg10 mi
2:35 AM46 °FOvercast.7 mph87%29.90 "Hg10 mi
2:15 AM46 °FOvercast.7 mph87%29.90 "Hg10 mi
1:55 AM46 °FOvercast.7 mph82%29.90 "Hg10 mi
1:35 AM46 °FOvercast.5 mph82%29.89 "Hg10 mi
1:15 AM46 °FOvercast.6 mph82%29.89 "Hg10 mi
12:55 AM46 °FMostly cloudy.6 mph76%29.88 "Hg10 mi
12:35 AM46 °FOvercast.7 mph82%29.89 "Hg10 mi
11:15 PM
Fri, Mar 27
48 °FOvercast.9 mph82%29.85 "Hg10 mi
10:49 PM48 °FMostly cloudy.12 mph82%29.85 "Hg10 mi
9:45 PM48 °FOvercast.12 mph82%29.82 "Hg10 mi
8:45 PM48 °FOvercast.17 mph82%29.78 "Hg10 mi
7:45 PM50 °FLow clouds.13 mph82%29.75 "Hg10 mi
6:45 PM52 °FMostly cloudy.13 mph82%29.72 "Hg10 mi
Weather by CustomWeather, © 2015

See weather overviewHow to use our weather pages